User: anonymous   Login
Location: Nirvana
(45.0297°N, 77.2628°W)
Time: 15:29:43
(UTC-04:00)
Language:

H-2A R/B - Orbit

View from above orbital plane
View from above orbital plane
View from above satellite
View from above satellite

Ground track
Ground track

The orbit data is extracted from the following two-line orbital elements,

1 27601U 02056E   16176.88641814 +.00000039 +00000-0 +29820-4 0  9997
2 27601 098.4181 250.1727 0070941 274.2834 215.3311 14.31719280706683
Epoch (UTC): 24 June 2016 21:16:26
Eccentricity: 0.0070941
inclination: 98.4181°
perigee height: 735 km
apogee height: 837 km
right ascension of ascending node: 250.1727°
argument of perigee: 274.2834°
revolutions per day: 14.31719280
mean anomaly at epoch: 215.3311°
orbit number at epoch: 70668

The dashed part of the orbit path shows where the satellite is in the earth's shadow,  

DLR